Weather History for KMWM - April, 2012

Change the Weather History Date:

Sunday, April 29, 2012

  Actual Average Record
Temperature  
Mean Temperature 45 °F -  
Max Temperature 48 °F 65 °F 87 °F (2007)
Min Temperature 42 °F 41 °F 20 °F (1958)
Degree Days  
Heating Degree Days 20    
Moisture  
Dew Point 43 °F    
Average Humidity 91    
Maximum Humidity 100    
Minimum Humidity 82    
Precipitation  
Precipitation 0.00 in - - ()
Sea Level Pressure  
Sea Level Pressure 30.10 in    
Wind  
Wind Speed 9 mph (ESE)    
Max Wind Speed 12 mph    
Max Gust Speed 16 mph    
Visibility 6 miles    
Events Rain    
Averages and records for this station are not official NWS values.
T = Trace of Precipitation, MM = Missing Value Source: NWS Daily Summary

Daily Weather History Graph

Daily Weather History Graph

Search for Another Location

Airport or City:

Trip Planner

Search our weather history database for the weather conditions in past years. The results will help you decide how hot, cold, wet, or windy it might be!

Date:

Astronomy

Apr. 29, 2012 Rise Set
Actual Time 6:14 AM CDT 8:21 PM CDT
Civil Twilight 5:42 AM CDT 8:53 PM CDT
Nautical Twilight 5:04 AM CDT 9:32 PM CDT
Astronomical Twilight 4:21 AM CDT 10:15 PM CDT
Moon 1:01 PM CDT (4/29) 2:20 AM CDT (4/29)
Length of Visible Light 15h 10m
Length of Day
14h 07m
First Quarter, 53% of the Moon is Illuminated
Apr 29
First Quarter
May 5
Full
May 12
Last Quarter
May 20
New
May 28
First Quarter

Hourly Weather History & Observations

Time (CDT) Temp. Windchill Dew Point Humidity Pressure Visibility Wind Dir Wind Speed Gust Speed Precip Events Conditions
12:13 AM 42.8 °F 37.0 °F 42.8 °F 100% 30.14 in 5.0 mi SE 10.4 mph - N/A   Overcast
12:32 AM 42.8 °F 36.6 °F 42.8 °F 100% 30.15 in 7.0 mi ESE 11.5 mph 16.1 mph N/A   Overcast
12:52 AM 42.8 °F 38.0 °F 42.8 °F 100% 30.15 in 5.0 mi SE 8.1 mph - N/A   Overcast
1:13 AM 42.8 °F 37.0 °F 42.8 °F 100% 30.15 in 7.0 mi ESE 10.4 mph - N/A   Overcast
1:32 AM 42.8 °F 36.6 °F 42.8 °F 100% 30.14 in 7.0 mi ESE 11.5 mph - N/A   Overcast
1:52 AM 42.8 °F 37.0 °F 42.8 °F 100% 30.13 in 5.0 mi ESE 10.4 mph - N/A   Overcast
2:12 AM 42.8 °F 36.6 °F 42.8 °F 100% 30.13 in 7.0 mi ESE 11.5 mph - N/A   Overcast
2:32 AM 42.8 °F 37.5 °F 42.8 °F 100% 30.14 in 5.0 mi SE 9.2 mph - N/A   Overcast
2:52 AM 44.6 °F 39.2 °F 42.8 °F 93% 30.15 in 7.0 mi SE 10.4 mph - N/A   Overcast
3:13 AM 44.6 °F 40.2 °F 42.8 °F 93% 30.15 in 7.0 mi SE 8.1 mph - N/A   Overcast
3:32 AM 44.6 °F 40.7 °F 42.8 °F 93% 30.16 in 7.0 mi ESE 6.9 mph - N/A   Overcast
3:52 AM 44.6 °F 40.7 °F 42.8 °F 93% 30.16 in 7.0 mi ESE 6.9 mph - N/A   Overcast
4:13 AM 44.6 °F 39.2 °F 42.8 °F 93% 30.15 in 5.0 mi SE 10.4 mph - N/A   Overcast
4:32 AM 44.6 °F 39.7 °F 42.8 °F 93% 30.15 in 5.0 mi ESE 9.2 mph - N/A   Overcast
4:52 AM 44.6 °F 40.2 °F 42.8 °F 93% 30.15 in 5.0 mi ESE 8.1 mph - N/A   Overcast
5:13 AM 44.6 °F 39.2 °F 42.8 °F 93% 30.14 in 4.0 mi ESE 10.4 mph - N/A   Overcast
5:32 AM 44.6 °F 40.2 °F 42.8 °F 93% 30.14 in 3.0 mi ESE 8.1 mph - N/A   Overcast
5:52 AM 44.6 °F 38.8 °F 42.8 °F 93% 30.13 in 3.0 mi ESE 11.5 mph - N/A   Overcast
6:32 AM 44.6 °F 39.7 °F 42.8 °F 93% 30.14 in 3.0 mi SE 9.2 mph - N/A   Overcast
6:52 AM 44.6 °F 39.7 °F 42.8 °F 93% 30.14 in 4.0 mi ESE 9.2 mph - N/A   Overcast
7:13 AM 44.6 °F 39.7 °F 42.8 °F 93% 30.15 in 4.0 mi SE 9.2 mph - N/A   Overcast
7:32 AM 44.6 °F 40.7 °F 42.8 °F 93% 30.16 in 3.0 mi SE 6.9 mph - N/A   Overcast
7:52 AM 42.8 °F 36.6 °F 42.8 °F 100% 30.16 in 1.0 mi ESE 11.5 mph - N/A   Overcast
8:13 AM 42.8 °F 37.0 °F 42.8 °F 100% 30.15 in 1.2 mi ESE 10.4 mph - N/A   Overcast
8:32 AM 42.8 °F 36.6 °F 42.8 °F 100% 30.15 in 1.5 mi ESE 11.5 mph - N/A   Overcast
8:52 AM 42.8 °F 37.0 °F 42.8 °F 100% 30.14 in 1.8 mi ESE 10.4 mph - N/A   Overcast
9:13 AM 42.8 °F 37.0 °F 42.8 °F 100% 30.15 in 7.0 mi ESE 10.4 mph - N/A   Overcast
9:32 AM 44.6 °F 40.2 °F 42.8 °F 93% 30.16 in 7.0 mi SE 8.1 mph - N/A   Overcast
9:52 AM 44.6 °F 39.2 °F 42.8 °F 93% 30.16 in 4.0 mi SE 10.4 mph - N/A   Overcast
10:13 AM 44.6 °F 40.2 °F 42.8 °F 93% 30.16 in 5.0 mi SE 8.1 mph - N/A   Overcast
10:32 AM 46.4 °F 41.9 °F 42.8 °F 87% 30.15 in 10.0 mi SE 9.2 mph - N/A   Overcast
10:53 AM 46.4 °F 41.5 °F 42.8 °F 87% 30.15 in 10.0 mi SE 10.4 mph - N/A   Overcast
11:12 AM 46.4 °F 42.4 °F 42.8 °F 87% 30.15 in 10.0 mi SE 8.1 mph - N/A   Overcast
11:32 AM 46.4 °F 41.9 °F 42.8 °F 87% 30.14 in 10.0 mi ESE 9.2 mph - N/A   Overcast
11:53 AM 46.4 °F 42.4 °F 42.8 °F 87% 30.13 in 10.0 mi East 8.1 mph - N/A   Overcast
12:12 PM 46.4 °F 41.9 °F 42.8 °F 87% 30.12 in 7.0 mi East 9.2 mph - N/A   Overcast
12:32 PM 46.4 °F 41.5 °F 42.8 °F 87% 30.12 in 10.0 mi ESE 10.4 mph - N/A   Overcast
12:53 PM 46.4 °F 42.9 °F 42.8 °F 87% 30.11 in 7.0 mi ESE 6.9 mph - N/A   Overcast
1:12 PM 46.4 °F 42.4 °F 42.8 °F 87% 30.10 in 7.0 mi East 8.1 mph - N/A   Overcast
1:33 PM 46.4 °F 42.9 °F 42.8 °F 87% 30.10 in 7.0 mi East 6.9 mph - N/A   Overcast
1:52 PM 46.4 °F 41.9 °F 42.8 °F 87% 30.10 in 5.0 mi East 9.2 mph - N/A   Overcast
2:12 PM 46.4 °F 41.5 °F 42.8 °F 87% 30.09 in 5.0 mi East 10.4 mph - N/A   Overcast
2:32 PM 48.2 °F - 42.8 °F 82% 30.08 in 7.0 mi East 8.1 mph - N/A   Overcast
2:52 PM 48.2 °F - 44.6 °F 87% 30.07 in 7.0 mi East 8.1 mph - N/A   Overcast
3:12 PM 48.2 °F - 42.8 °F 82% 30.08 in 7.0 mi ESE 6.9 mph - N/A   Overcast
3:33 PM 48.2 °F - 44.6 °F 87% 30.07 in 7.0 mi East 8.1 mph - N/A   Overcast
3:52 PM 48.2 °F - 44.6 °F 87% 30.06 in 7.0 mi East 6.9 mph - N/A   Overcast
4:13 PM 48.2 °F - 42.8 °F 82% 30.06 in 7.0 mi ESE 8.1 mph - N/A   Overcast
4:32 PM 48.2 °F - 42.8 °F 82% 30.05 in 7.0 mi East 5.8 mph - N/A   Overcast
4:52 PM 48.2 °F - 44.6 °F 87% 30.04 in 7.0 mi ESE 5.8 mph - N/A   Overcast
5:12 PM 48.2 °F - 44.6 °F 87% 30.04 in 7.0 mi ESE 5.8 mph - N/A   Overcast
5:32 PM 48.2 °F - 44.6 °F 87% 30.03 in 7.0 mi East 6.9 mph - N/A   Overcast
5:53 PM 48.2 °F - 44.6 °F 87% 30.03 in 7.0 mi East 5.8 mph - N/A   Overcast
6:13 PM 48.2 °F - 44.6 °F 87% 30.02 in 7.0 mi East 6.9 mph - N/A   Overcast
6:32 PM 48.2 °F - 44.6 °F 87% 30.01 in 7.0 mi East 10.4 mph - N/A   Overcast
6:53 PM 48.2 °F - 44.6 °F 87% 30.00 in 7.0 mi East 11.5 mph - N/A   Overcast
7:12 PM 48.2 °F - 44.6 °F 87% 30.00 in 7.0 mi East 10.4 mph - N/A   Overcast
7:32 PM 48.2 °F - 44.6 °F 87% 30.01 in 7.0 mi ESE 9.2 mph - N/A   Overcast
7:53 PM 48.2 °F - 44.6 °F 87% 30.02 in 7.0 mi SE 6.9 mph - N/A   Overcast
8:12 PM 46.4 °F 43.5 °F 44.6 °F 93% 30.03 in 7.0 mi SE 5.8 mph - N/A   Overcast
8:33 PM 46.4 °F 43.5 °F 44.6 °F 93% 30.03 in 10.0 mi SSE 5.8 mph - N/A   Overcast
9:12 PM 46.4 °F 43.5 °F 44.6 °F 93% 30.03 in 10.0 mi SE 5.8 mph - N/A   Overcast
9:33 PM 46.4 °F 45.2 °F 42.8 °F 87% 30.04 in 10.0 mi SE 3.5 mph - N/A Rain Light Rain
9:52 PM 46.4 °F - 44.6 °F 93% 30.04 in 10.0 mi Calm Calm - N/A   Overcast
10:13 PM 46.4 °F - 44.6 °F 93% 30.04 in 7.0 mi Calm Calm - N/A   Overcast
10:33 PM 46.4 °F 45.2 °F 44.6 °F 93% 30.02 in 7.0 mi SSE 3.5 mph - N/A   Overcast
10:52 PM 46.4 °F 43.5 °F 44.6 °F 93% 30.02 in 7.0 mi SE 5.8 mph - N/A   Overcast
11:13 PM 46.4 °F 44.3 °F 42.8 °F 87% 30.01 in 7.0 mi SE 4.6 mph - N/A   Overcast
11:32 PM 44.6 °F 42.2 °F 42.8 °F 93% 30.00 in 7.0 mi ESE 4.6 mph - N/A   Overcast
11:52 PM 44.6 °F 42.2 °F 44.6 °F 100% 30.00 in 7.0 mi SSE 4.6 mph - N/A   Overcast